METEOSAT-12 (MTG-I1)

Last updated on Wed Aug 19 2026 00:02:41 GMT+0000 (Coordinated Universal Time)

1 54743U 22170C 26230.34574317 -.00000012 00000+0 00000+0 0 9994 2 54743 0.7636 25.0091 0003842 84.4930 341.2845 1.00274506 13601
UTC large
Height (km)
Speed (km/s)
/
Latitude / Longitude
Inclination (degrees)
Orbital Period (minutes)
Azimuth
Elevation
Range (km)
Doppler Factor

Next 0 passes for location: London (51.5072 / 0.1276)

No passes found over London.
METEOSAT-12 (MTG-I1)